Orbital Elements at Epoch 2459000.5 (2020-May-31.0) TDB
Reference: JPL 27 (heliocentric ecliptic J2000)
Element | Value | Uncertainty (1-sigma) | Units |
e | .06280698852714943 | 3.6351e-08 | |
a | 2.668719416207286 | 1.3659e-08 | au |
q | 2.501105186451374 | 9.2978e-08 | au |
i | 6.241631549037481 | 3.6303e-06 | deg |
node | 92.03158632994773 | 3.6001e-05 | deg |
peri | 36.39339766654242 | 5.4199e-05 | deg |
M | 170.8883851575599 | 4.3251e-05 | deg |
tp | 2458244.602611445002 (2018-May-06.10261144) | 0.0001885 | TDB |
period | 1592.402313527046 4.36 | 1.2225e-05 3.347e-08 | d yr |
n | .2260735223391056 | 1.7356e-09 | deg/d |
Q | 2.836333645963198 | 1.4517e-08 | au |
|
| | Orbit Determination Parameters
Additional Information
|